Francistown, Botswana

12:36 PM CAT on June 26, 2017 (GMT +0200)
Francistown

Weather History for FBFT - January, 2014

Change the Weather History Date:

Sunday, January 19, 2014

  Actual Average Record
Temperature  
Mean Temperature 77 °F -  
Max Temperature 89 °F 84 °F 95 °F (2003)
Min Temperature 65 °F 65 °F 59 °F (2000)
Cooling Degree Days 12    
Growing Degree Days 27 (Base 50)    
Moisture  
Dew Point 54 °F    
Average Humidity 49    
Maximum Humidity 83    
Minimum Humidity 4    
Precipitation  
Precipitation 0.00 in - - ()
Sea Level Pressure  
Sea Level Pressure 30.06 in    
Wind  
Wind Speed 7 mph ()    
Max Wind Speed 16 mph    
Max Gust Speed -    
Visibility 6.1 miles    
Events      
Averages and records for this station are not official NWS values.
T = Trace of Precipitation, MM = Missing Value Source: Averaged Metar Reports

Daily Weather History Graph

Daily Weather History Graph

Search for Another Location

Airport or City:

Trip Planner

Search our weather history database for the weather conditions in past years. The results will help you decide how hot, cold, wet, or windy it might be!

Date:

Astronomy

Jan. 19, 2014 Rise Set
Actual Time 5:43 AM CAT 6:57 PM CAT
Civil Twilight 5:19 AM CAT 7:21 PM CAT
Nautical Twilight 4:50 AM CAT 7:50 PM CAT
Astronomical Twilight 4:21 AM CAT 8:19 PM CAT
Moon 8:56 PM CAT (1/19) 8:15 AM CAT (1/19)
Length of Visible Light 14h 02m
Length of Day
13h 13m
Waning Gibbous, 91% of the Moon is Illuminated
Jan 19
Waning Gibbous
Jan 24
Last Quarter
Jan 30
New
Feb 6
First Quarter
Feb 15
Full

Hourly Weather History & Observations

Time (CAT) Temp. Heat Index Dew Point Humidity Pressure Visibility Wind Dir Wind Speed Gust Speed Precip Events Conditions
12:00 AM 69.8 °F - 57.2 °F 64% 30.06 in - ESE 5.8 mph - N/A   Clear
1:00 AM 71.6 °F - 57.2 °F 60% 30.06 in - East 8.1 mph - N/A   Clear
4:00 AM 64.4 °F - 59.0 °F 83% 30.06 in - East 2.3 mph - N/A   Clear
5:00 AM 66 °F - 59 °F 72%  in 6 mi ESE 3.5 mph - -   Partly Cloudy
5:00 AM 66.2 °F - 59.0 °F 78% 30.06 in - ESE 3.5 mph - N/A   Clear
6:00 AM 64.4 °F - 59.0 °F 83% 30.09 in - East 4.6 mph - N/A   Clear
7:00 AM 69.8 °F - 60.8 °F 73% 30.09 in - East 9.2 mph - N/A   Clear
8:00 AM 73 °F - 61 °F 58%  in 6 mi ENE 15.0 mph - -   Partly Cloudy
8:00 AM 73.4 °F - 60.8 °F 65% 30.09 in - ENE 15.0 mph - N/A   Clear
9:00 AM 77.0 °F - 60.8 °F 57% 30.09 in - ENE 16.1 mph - N/A   Clear
10:00 AM 80.6 °F 81.5 °F 60.8 °F 51% 30.09 in 6.2 mi East 11.5 mph - N/A   Partly Cloudy
11:00 AM 83 °F - 59 °F 34%  in 6 mi East 11.5 mph - -   Partly Cloudy
11:00 AM 84.2 °F 83.8 °F 59.0 °F 42% 30.09 in 6.2 mi East 11.5 mph - N/A   Partly Cloudy
12:00 PM 86.0 °F 84.9 °F 57.2 °F 37% 30.09 in 6.2 mi East 15.0 mph - N/A   Partly Cloudy
1:00 PM 87.8 °F 87.1 °F 59.0 °F 38% 30.06 in 6.2 mi ESE 10.4 mph - N/A   Scattered Clouds
2:00 PM 88 °F - 56 °F 24%  in 6 mi SSE 11.5 mph - -   Partly Cloudy
2:00 PM 87.8 °F 86.5 °F 57.2 °F 35% 30.04 in 6.2 mi SSE 11.5 mph - N/A   Scattered Clouds
3:00 PM 89.6 °F 88.1 °F 57.2 °F 33% 30.04 in 6.2 mi ESE 8.1 mph - N/A   Scattered Clouds
5:00 PM 89 °F - -46 °F 4%  in 6 mi SE 10.4 mph - -   Partly Cloudy
5:00 PM 89.6 °F 88.1 °F 57.2 °F 33% 29.98 in 6.2 mi SE 10.4 mph - N/A   Scattered Clouds
6:00 PM 87.8 °F - 51.8 °F 29% 29.98 in 6.2 mi SE 9.2 mph - N/A   Scattered Clouds
7:00 PM 84.2 °F 82.8 °F 53.6 °F 35% 30.01 in 6.2 mi SE 6.9 mph - N/A   Partly Cloudy
8:00 PM 82.4 °F 81.4 °F 53.6 °F 37% 30.04 in 6.2 mi ESE 5.8 mph - N/A   Partly Cloudy
9:00 PM 78.8 °F - 53.6 °F 42% 30.06 in 6.2 mi East 8.1 mph - N/A   Partly Cloudy
10:00 PM 73.4 °F - 57.2 °F 57% 30.06 in 6.2 mi SE 6.9 mph - N/A   Partly Cloudy
11:00 PM 71.6 °F - 57.2 °F 60% 30.06 in - SE 5.8 mph - N/A   Clear